EW3012 Weather Reports


time (UTC)temp
C
wind
direction
speed
KPH
gust
KPH
rain 1hr
cm
rain 24hr
cm
rain mn
cm
humidity
%
barometer
mb
20260504015414 1 237 0.0 0.0 0.00 0.00 0.00 86 1016.4
20260504014458 1 235 0.0 0.0 0.00 0.00 0.00 86 1016.4
20260504014338 1 235 0.0 0.0 0.00 0.00 0.00 85 1016.4
20260504014145 1 235 0.0 0.0 0.00 0.00 0.00 86 1016.4
20260504013339 1 235 0.0 0.0 0.00 0.00 0.00 84 1016.5
20260504013138 1 235 0.0 0.0 0.00 0.00 0.00 85 1016.5
20260504011957 1 252 0.0 0.0 0.00 0.00 0.00 84 1016.5
20260504011456 1 269 0.0 0.0 0.00 0.00 0.00 84 1016.5
20260504010956 1 252 0.0 0.0 0.00 0.00 0.00 84 1016.5
20260504010457 0 254 0.0 0.0 0.00 0.00 0.00 84 1016.6
20260504005957 0 255 0.0 0.0 0.00 0.00 0.00 85 1016.6
20260504005456 0 255 0.0 0.0 0.00 0.00 0.00 85 1016.6
20260504004955 0 235 0.0 0.0 0.00 0.00 0.00 85 1016.7
20260504004454 0 235 0.0 0.0 0.00 0.00 0.00 85 1016.7
20260504003955 0 235 0.0 0.0 0.00 0.00 0.00 85 1016.7
20260504003456 0 235 0.0 0.0 0.00 0.00 0.00 85 1016.7
20260504003409 0 235 0.0 0.0 0.00 0.00 0.00 85 1016.5
20260504002919 0 244 0.0 0.0 0.00 0.00 0.00 85 1016.5
20260504001956 0 262 0.0 0.0 0.00 0.00 0.00 86 1016.7
20260504001455 0 254 0.0 0.0 0.00 0.00 0.00 86 1016.7
20260504000954 0 254 0.0 0.0 0.00 0.00 0.00 86 1016.8
20260504000454 0 254 0.0 0.0 0.00 0.00 0.00 86 1016.7
20260503235953 0 265 0.0 0.0 0.00 0.00 0.00 86 1016.7
20260503235453 0 265 0.0 0.0 0.00 0.00 0.00 86 1016.8
20260503234955 0 265 0.0 0.0 0.00 0.00 0.00 86 1016.8
20260503234914 0 265 0.0 0.0 0.00 0.00 0.00 86 1016.8
20260503234408 0 265 0.0 0.0 0.00 0.00 0.00 87 1016.9
20260503233453 0 265 0.0 0.0 0.00 0.00 0.00 87 1016.9
20260503232955 0 265 0.0 0.0 0.00 0.00 0.00 87 1016.9
20260503232454 0 265 0.0 0.0 0.00 0.00 0.00 87 1016.9
20260503231953 0 265 0.0 0.0 0.00 0.00 0.00 88 1016.9
20260503231454 0 265 0.0 0.0 0.00 0.00 0.00 88 1016.9
20260503230952 0 265 0.0 0.0 0.00 0.00 0.00 88 1016.9
20260503230915 0 265 0.0 0.0 0.00 0.00 0.00 88 1017.0
20260503225952 1 265 0.0 0.0 0.00 0.00 0.00 88 1017.0
20260503225454 1 265 0.0 0.0 0.00 0.00 0.00 88 1017.1
20260503225409 1 250 0.0 0.0 0.00 0.00 0.00 88 1017.1
20260503224907 1 288 0.0 0.0 0.00 0.00 0.00 87 1017.1
20260503223952 1 285 0.0 0.0 0.00 0.00 0.00 87 1017.2
20260503223452 1 271 0.0 0.0 0.00 0.00 0.00 87 1017.4
20260503222952 1 262 0.0 0.0 0.00 0.00 0.00 87 1017.4
20260503222913 1 269 0.0 0.0 0.00 0.00 0.00 87 1017.4
20260503221952 1 269 0.0 0.0 0.00 0.00 0.00 88 1017.5
20260503221452 1 269 0.0 0.0 0.00 0.00 0.00 88 1017.6
20260503221405 1 269 0.0 0.0 0.00 0.00 0.00 88 1017.7
20260503220451 1 269 0.0 0.0 0.00 0.00 0.00 88 1017.8
20260503220406 1 269 0.0 0.0 0.00 0.00 0.00 88 1017.9
20260503215451 1 269 0.0 0.0 0.00 0.00 0.00 87 1018.1
20260503214952 1 269 0.0 0.0 0.00 0.00 0.00 87 1018.1
20260503214901 2 269 0.0 0.0 0.00 0.00 0.00 86 1018.2
20260503213951 2 269 0.0 0.0 0.00 0.00 0.00 86 1018.2
20260503213453 3 269 0.0 3.2 0.00 0.00 0.00 85 1018.1
20260503212951 3 223 0.0 3.2 0.00 0.00 0.00 86 1018.1
20260503212450 3 262 0.0 4.8 0.00 0.00 0.00 86 1018.1
20260503211950 3 269 0.0 4.8 0.00 0.00 0.00 86 1018.1
20260503211451 3 251 0.0 4.8 0.00 0.00 0.00 86 1018.2
20260503210950 3 212 0.0 4.8 0.00 0.00 0.00 86 1018.3
20260503210451 3 282 0.0 1.6 0.00 0.00 0.00 86 1018.3
20260503205953 3 274 0.0 0.0 0.00 0.00 0.00 85 1018.5
20260503205451 3 262 0.0 1.6 0.00 0.00 0.00 86 1018.5
20260503204951 3 257 0.0 1.6 0.00 0.00 0.00 85 1018.5
20260503204449 3 258 0.0 3.2 0.00 0.00 0.00 85 1018.6
20260503204334 3 258 0.0 3.2 0.00 0.00 0.00 86 1018.6
20260503204138 3 240 0.0 3.2 0.00 0.00 0.00 86 1018.6
20260503202952 3 281 0.0 1.6 0.00 0.00 0.00 87 1018.6
20260503202448 3 251 0.0 0.0 0.00 0.00 0.00 87 1018.6
20260503201950 2 281 0.0 0.0 0.00 0.00 0.00 87 1018.7
20260503201448 2 259 0.0 0.0 0.00 0.00 0.00 87 1018.8
20260503200949 2 258 0.0 0.0 0.00 0.00 0.00 86 1018.8
20260503200450 3 258 0.0 0.0 0.00 0.00 0.00 86 1018.9
20260503195949 3 259 0.0 0.0 0.00 0.00 0.00 86 1018.9
20260503195449 3 259 0.0 0.0 0.00 0.00 0.00 85 1018.8
20260503194948 3 259 0.0 0.0 0.00 0.00 0.00 84 1018.9
20260503194448 4 259 0.0 0.0 0.00 0.00 0.00 83 1018.8
20260503193948 5 262 0.0 0.0 0.00 0.00 0.00 82 1018.8
20260503193448 5 262 0.0 0.0 0.00 0.00 0.00 83 1018.8
20260503192950 4 279 0.0 0.0 0.00 0.00 0.00 84 1018.8
20260503192448 4 276 0.0 0.0 0.00 0.00 0.00 85 1018.8
20260503192327 4 216 0.0 0.0 0.00 0.00 0.00 83 1018.9
20260503192134 4 214 0.0 0.0 0.00 0.00 0.00 84 1018.9
20260503190949 5 216 0.0 1.6 0.00 0.00 0.00 83 1018.9
20260503190448 5 317 0.0 1.6 0.00 0.00 0.00 83 1018.9
20260503185948 5 257 0.0 0.0 0.00 0.00 0.00 82 1018.9
20260503185450 5 257 0.0 0.0 0.00 0.00 0.00 82 1018.9
20260503184947 5 257 0.0 0.0 0.00 0.00 0.00 81 1018.9
20260503184448 5 257 0.0 0.0 0.00 0.00 0.00 81 1019.0
20260503183947 5 257 0.0 0.0 0.00 0.00 0.00 81 1018.9
20260503183449 5 257 0.0 0.0 0.00 0.00 0.00 80 1018.8
20260503182947 6 259 0.0 0.0 0.00 0.00 0.00 79 1018.8
20260503182447 5 303 0.0 0.0 0.00 0.00 0.00 80 1018.8
20260503181947 6 76 0.0 0.0 0.00 0.00 0.00 80 1018.8
20260503181446 6 71 0.0 0.0 0.00 0.00 0.00 77 1018.8
20260503180947 6 71 0.0 0.0 0.00 0.00 0.00 75 1018.8
20260503180445 6 71 0.0 0.0 0.00 0.00 0.00 73 1018.7
20260503175949 7 71 0.0 0.0 0.00 0.00 0.00 72 1018.7
20260503175445 7 71 0.0 0.0 0.00 0.00 0.00 70 1018.7
20260503175405 7 71 0.0 0.0 0.00 0.00 0.00 68 1018.6
20260503174903 8 71 0.0 0.0 0.00 0.00 0.00 67 1018.6
20260503173947 8 71 0.0 0.0 0.00 0.00 0.00 66 1018.5
20260503173444 8 71 0.0 0.0 0.00 0.00 0.00 64 1018.4
20260503172945 9 71 0.0 0.0 0.00 0.00 0.00 63 1018.4
20260503172858 10 71 0.0 0.0 0.00 0.00 0.00 61 1018.4
20260503171945 10 71 0.0 0.0 0.00 0.00 0.00 60 1018.3
20260503171446 11 71 0.0 0.0 0.00 0.00 0.00 56 1018.3
20260503171355 11 71 0.0 0.0 0.00 0.00 0.00 56 1018.3
20260503170447 11 71 0.0 0.0 0.00 0.00 0.00 54 1018.2
20260503150944 15 140 0.0 3.2 0.00 0.00 0.00 45 1017.7
20260503150442 15 144 0.0 0.0 0.00 0.00 0.00 46 1017.7
20260503130939 14 131 0.0 1.6 0.00 0.03 0.00 42 1018.8
20260503130439 14 30 0.0 6.4 0.00 0.03 0.00 41 1018.8
20260503110435 15 121 0.0 3.2 0.00 0.10 0.00 40 1020.2
20260503081432 11 138 0.0 19.3 0.00 0.10 0.00 45 1021.5
20260503080934 11 158 1.6 19.3 0.00 0.10 0.00 44 1021.5
20260503080431 11 116 0.0 9.7 0.00 0.10 0.00 44 1021.5
20260503072931 11 68 1.6 14.5 0.00 0.10 0.00 46 1021.7
20260503072431 10 341 0.0 14.5 0.00 0.10 0.00 44 1021.6
20260503071931 11 66 0.0 19.3 0.00 0.10 0.00 48 1021.7
20260503071432 10 140 0.0 20.9 0.00 0.10 0.00 47 1021.7
20260503070931 11 110 6.4 20.9 0.00 0.10 0.00 47 1021.6
20260503070433 11 140 0.0 4.8 0.00 0.10 0.00 48 1021.7
20260503054930 8 217 0.0 0.0 0.00 0.10 0.00 70 1021.6
20260503054431 8 56 0.0 0.0 0.00 0.10 0.00 71 1021.6
20260503054338 8 55 0.0 0.0 0.00 0.10 0.00 75 1021.6
20260503053525 7 275 0.0 0.0 0.00 0.10 0.00 77 1021.5
20260503052928 7 275 0.0 0.0 0.00 0.10 0.00 77 1021.6
20260503052807 6 275 0.0 0.0 0.00 0.10 0.00 85 1021.6
20260503052612 7 276 0.0 0.0 0.00 0.10 0.00 80 1021.6
20260503051428 5 276 0.0 0.0 0.00 0.10 0.00 87 1021.6
20260503050929 3 276 0.0 0.0 0.00 0.10 0.00 87 1021.6
20260503050429 3 276 0.0 0.0 0.00 0.10 0.00 88 1021.5
20260503045929 3 262 0.0 0.0 0.00 0.10 0.00 88 1021.5
20260503045427 3 262 0.0 0.0 0.00 0.10 0.00 87 1021.6
20260503045342 2 262 0.0 0.0 0.00 0.10 0.00 85 1021.5
20260503044428 1 262 0.0 0.0 0.00 0.10 0.00 86 1021.5
20260503043928 1 255 0.0 0.0 0.00 0.10 0.00 86 1021.5
20260503043429 0 336 0.0 0.0 0.00 0.10 0.00 85 1021.5
20260503042927 0 250 0.0 0.0 0.00 0.10 0.00 85 1021.5
20260503042430 0 250 0.0 0.0 0.00 0.10 0.00 84 1021.5
20260503041928 0 250 0.0 0.0 0.00 0.10 0.00 85 1021.4
20260503041428 -1 248 0.0 0.0 0.00 0.10 0.00 84 1021.4
20260503040926 -1 248 0.0 0.0 0.00 0.10 0.00 85 1021.4
20260503040847 -1 250 0.0 0.0 0.00 0.10 0.00 85 1021.4
20260503035927 -1 250 0.0 0.0 0.00 0.10 0.00 85 1021.3
20260503035426 -1 248 0.0 0.0 0.00 0.10 0.00 85 1021.3
20260503034926 -1 250 0.0 0.0 0.00 0.10 0.00 85 1021.3
20260503034846 -1 216 0.0 0.0 0.00 0.10 0.00 86 1021.2
20260503034259 -1 262 0.0 0.0 0.00 0.10 0.00 86 1021.1
20260503034112 -1 216 0.0 0.0 0.00 0.10 0.00 85 1021.2
20260503032927 -1 251 0.0 0.0 0.00 0.10 0.00 86 1021.0
20260503032425 -1 251 0.0 0.0 0.00 0.10 0.00 86 1021.1
20260503032344 -1 251 0.0 0.0 0.00 0.10 0.00 87 1021.1
20260503031426 -1 251 0.0 0.0 0.00 0.10 0.00 87 1021.0
20260503030925 -1 251 0.0 0.0 0.00 0.10 0.00 87 1021.0
20260503030426 -1 97 0.0 0.0 0.00 0.10 0.00 87 1021.0
20260503030325 0 34 0.0 0.0 0.00 0.10 0.00 86 1021.0
20260503025425 0 271 0.0 0.0 0.00 0.10 0.00 86 1020.9
20260503024925 -1 275 0.0 3.2 0.00 0.10 0.00 86 1020.9
20260503024426 -1 255 0.0 4.8 0.00 0.10 0.00 86 1020.9
20260503023924 0 241 0.0 4.8 0.00 0.10 0.00 86 1020.9
20260503023425 0 262 0.0 4.8 0.00 0.10 0.00 86 1020.9
20260503023404 0 271 3.2 4.8 0.00 0.10 0.00 86 1020.9
20260503022425 0 265 0.0 0.0 0.00 0.10 0.00 86 1020.9
20260503021926 0 269 0.0 0.0 0.00 0.10 0.00 86 1020.9
20260503021423 0 274 0.0 0.0 0.00 0.10 0.00 86 1020.9
20260503020925 0 257 0.0 4.8 0.00 0.10 0.00 86 1020.9
20260503020424 0 274 0.0 8.0 0.00 0.10 0.00 86 1020.9